Home   Weather   Leuven   Past weeks

Flag for Belgium Past Weather in Leuven, Belgium — Yesterday and Last 2 Weeks

Now
50 °F

Light rain. Partly sunny.


Feels Like: 43 °F
Forecast: 42 / 50 °F
Wind: 22 mph from West

Location: Brussels National Airport

Current Time: Feb 22, 2017 at 5:18:13 pm

Latest Report: Feb 22, 2017 at 4:20 pm


Visibility: N/A

Pressure: 29.77 "Hg

Humidity: 88%

Dew Point: 46 °F

Location of LeuvenLocation

Past Weather in Leuven — Graph

°F

Leuven Temperature Yesterday

Maximum temperature yesterday: 52 °F (at 12:50 pm)
Minimum temperature yesterday: 50 °F (at 12:20 am)
Average temperature yesterday: 50 °F

High & Low Weather Summary for the Past Weeks

 TemperatureHumidityPressure
High57 °F (Feb 15, 12:50 pm)100% (Feb 7, 3:50 pm)30.48 "Hg (Feb 7, 3:50 pm)
Low27 °F (Feb 10, 4:50 am)54% (Feb 14, 1:20 pm)29.77 "Hg (Feb 22, 2:50 pm)
Average41 °F86%30.21 "Hg
* Reported Feb 7 3:20 pm — Feb 22 3:50 pm, Leuven, Weather by CustomWeather, © 2017

Note: Actual official high and low records may vary slightly from our data, if they occured in-between our weather recording intervals... More about our weather records

Advertising

Leuven Weather History for the Previous 24 Hours

Scroll right to see more
 ConditionsComfort  
Time TempWeatherWind HumidityBarometerVisibility
3:50 pm
Wed, Feb 22
50 °FLight rain. Partly sunny.24 mph88%29.77 "HgN/A
3:20 pm50 °FLight rain. Partly sunny.26 mph88%29.77 "HgN/A
2:50 pm50 °FLight rain. Partly sunny.23 mph88%29.77 "Hg5 mi
2:20 pm50 °FPartly sunny.23 mph88%29.80 "HgN/A
1:50 pm50 °FPartly sunny.23 mph88%29.80 "HgN/A
1:20 pm50 °FLight rain. Partly sunny.25 mph88%29.80 "HgN/A
12:50 pm50 °FDrizzle. Broken clouds.22 mph88%29.83 "Hg4 mi
12:20 pm50 °FDrizzle. Partly sunny.20 mph88%29.83 "Hg5 mi
11:50 am50 °FDrizzle. Broken clouds.22 mph88%29.83 "Hg4 mi
11:20 am50 °FDrizzle. Partly sunny.21 mph88%29.83 "Hg4 mi
10:20 am50 °FDrizzle. Fog.20 mph88%29.83 "Hg2 mi
9:50 am48 °FDrizzle. Fog.18 mph94%29.83 "Hg2 mi
9:20 am50 °FDrizzle. Fog.18 mph88%29.83 "Hg2 mi
8:50 am50 °FFog.22 mph88%29.83 "Hg3 mi
8:20 am50 °FPartly sunny.22 mph88%29.83 "HgN/A
7:50 am50 °FPartly sunny.22 mph82%29.83 "HgN/A
7:20 am50 °FLight rain. Passing clouds.24 mph88%29.80 "HgN/A
6:50 am50 °FPassing clouds.22 mph82%29.80 "HgN/A
6:20 am50 °FLight rain. Passing clouds.20 mph88%29.80 "HgN/A
5:50 am50 °FPassing clouds.20 mph88%29.83 "HgN/A
5:20 am48 °FPassing clouds.18 mph94%29.83 "Hg4 mi
4:50 am48 °FDrizzle. Fog.20 mph94%29.83 "Hg3 mi
4:20 am48 °FDrizzle. Fog.18 mph94%29.86 "Hg3 mi
3:50 am48 °FDrizzle. Fog.18 mph94%29.86 "Hg3 mi
3:20 am50 °FPassing clouds.20 mph88%29.89 "Hg4 mi
2:50 am50 °FPassing clouds.22 mph88%29.89 "HgN/A
2:20 am50 °FPassing clouds.22 mph88%29.89 "HgN/A
1:50 am50 °FPassing clouds.25 mph88%29.89 "HgN/A
1:20 am50 °FPassing clouds.23 mph88%29.89 "HgN/A
12:50 am50 °FLight rain. Passing clouds.23 mph88%29.92 "HgN/A
12:20 am50 °FLight rain. Passing clouds.22 mph88%29.92 "HgN/A
11:50 pm
Tue, Feb 21
50 °FPassing clouds.20 mph88%29.92 "HgN/A
11:20 pm50 °FPassing clouds.21 mph88%29.92 "HgN/A
10:50 pm50 °FPassing clouds.17 mph94%29.95 "Hg4 mi
10:20 pm50 °FLight rain. Passing clouds.17 mph88%29.95 "Hg4 mi
9:50 pm50 °FLight rain. Passing clouds.18 mph88%29.95 "Hg4 mi
9:20 pm50 °FPassing clouds.20 mph88%29.95 "HgN/A
8:50 pm50 °FPassing clouds.17 mph94%29.95 "HgN/A
8:20 pm50 °FPassing clouds.14 mph94%29.98 "HgN/A
7:50 pm50 °FPassing clouds.14 mph94%29.98 "HgN/A
7:20 pm50 °FPassing clouds.13 mph94%29.98 "HgN/A
6:50 pm50 °FPartly cloudy.12 mph94%29.98 "HgN/A
6:20 pm50 °FPassing clouds.10 mph94%29.98 "HgN/A
5:50 pm50 °FBroken clouds.12 mph94%30.01 "HgN/A
5:20 pm52 °FPartly sunny.13 mph88%30.01 "HgN/A
Weather by CustomWeather, © 2017

See weather overviewHow to use our weather pages